,,,PA_Meas_PMT16A,,PR_Meas_QMR101_102,,RH_Meas_QMH101,,SR_Meas_QMS101,,TA_Meas_QMH101,,GenWind,,GenWind,
date,time,status,PA,status,PR,status,RH,status,SR,status,TA,status,DirAvg,status,SpdAvg,
2012-06-12, 00:00:05,VALID,1004.56,VALID,0,VALID,89.4715,VALID,0,VALID,25.045,VALID,351,VALID,0.263281,
2012-06-12, 00:01:05,VALID,1004.55,VALID,0,VALID,89.6699,VALID,0,VALID,25.006,VALID,351,VALID,0.466016,
2012-06-12, 00:02:05,VALID,1004.55,VALID,0,VALID,89.7156,VALID,0,VALID,25.0041,VALID,351,VALID,0.104297,
2012-06-12, 00:03:05,VALID,1004.53,VALID,0,VALID,89.7614,VALID,0,VALID,25.0274,VALID,351,VALID,0.460156,
2012-06-12, 00:04:05,VALID,1004.52,VALID,0,VALID,89.7767,VALID,0.0815089,VALID,25.006,VALID,351,VALID,0.000390625,
2012-06-12, 00:05:05,VALID,1004.52,VALID,0,VALID,89.9292,VALID,0,VALID,25.006,VALID,351,VALID,0.441016,
2012-06-12, 00:06:05,VALID,1004.54,VALID,0,VALID,89.975,VALID,0,VALID,24.9652,VALID,352,VALID,0.779688,
2012-06-12, 00:07:05,VALID,1004.52,VALID,0,VALID,90.0055,VALID,0,VALID,25.006,VALID,357,VALID,0.675391,
2012-06-12, 00:08:05,VALID,1004.52,VALID,0,VALID,89.9064,VALID,0.0815089,VALID,25.0255,VALID,358,VALID,0.650781,
2012-06-12, 00:09:05,VALID,1004.51,VALID,0,VALID,89.8682,VALID,0,VALID,25.006,VALID,357,VALID,0.456641,
2012-06-12, 00:10:05,VALID,1004.48,VALID,0,VALID,89.9521,VALID,0,VALID,24.9847,VALID,356,VALID,0.582422,
2012-06-12, 00:11:05,VALID,1004.5,VALID,0,VALID,90.0055,VALID,0,VALID,24.9671,VALID,356,VALID,0.584766,
2012-06-12, 00:12:05,VALID,1004.45,VALID,0,VALID,90.0513,VALID,0,VALID,24.9671,VALID,356,VALID,0.501953,
2012-06-12, 00:13:05,VALID,1004.45,VALID,0,VALID,90.0589,VALID,0,VALID,24.969,VALID,352,VALID,0.789453,
2012-06-12, 00:14:05,VALID,1004.45,VALID,0,VALID,90.036,VALID,0,VALID,24.969,VALID,3,VALID,0.701953,
2012-06-12, 00:15:05,VALID,1004.42,VALID,0,VALID,90.0284,VALID,0,VALID,24.9671,VALID,6,VALID,0.704297,
2012-06-12, 00:16:05,VALID,1004.4,VALID,0,VALID,89.8377,VALID,0,VALID,25.0274,VALID,347,VALID,0.630469,
2012-06-12, 00:17:05,VALID,1004.4,VALID,0,VALID,89.6622,VALID,0,VALID,25.0255,VALID,357,VALID,0.649609,
2012-06-12, 00:18:05,VALID,1004.41,VALID,0,VALID,89.5478,VALID,0,VALID,25.0858,VALID,6,VALID,0.738672,
2012-06-12, 00:19:05,VALID,1004.43,VALID,0,VALID,89.38,VALID,0,VALID,25.082,VALID,10,VALID,0.693359,
2012-06-12, 00:20:05,VALID,1004.41,VALID,0,VALID,89.174,VALID,0,VALID,25.1637,VALID,16,VALID,0.537891,
2012-06-12, 00:21:05,VALID,1004.42,VALID,0,VALID,88.9299,VALID,0,VALID,25.1832,VALID,16,VALID,0.460156,
2012-06-12, 00:22:05,VALID,1004.4,VALID,0,VALID,88.8383,VALID,0,VALID,25.1813,VALID,19,VALID,0.778516,
2012-06-12, 00:23:05,VALID,1004.39,VALID,0,VALID,88.8307,VALID,0,VALID,25.2221,VALID,14,VALID,0.704297,
2012-06-12, 00:24:04,VALID,1004.41,VALID,0,VALID,88.8993,VALID,0,VALID,25.1813,VALID,14,VALID,0.401953,
2012-06-12, 00:25:04,VALID,1004.43,VALID,0,VALID,89.029,VALID,0,VALID,25.1423,VALID,2,VALID,0.517578,
2012-06-12, 00:26:04,VALID,1004.42,VALID,0,VALID,89.0138,VALID,0,VALID,25.1404,VALID,2,VALID,0.694922,
2012-06-12, 00:27:04,VALID,1004.41,VALID,0,VALID,88.9833,VALID,0.0815089,VALID,25.1832,VALID,2,VALID,0.501953,
2012-06-12, 00:28:04,VALID,1004.41,VALID,0,VALID,89.113,VALID,0,VALID,25.1618,VALID,2,VALID,0.524219,
2012-06-12, 00:29:04,VALID,1004.4,VALID,0,VALID,89.1892,VALID,0,VALID,25.1229,VALID,356,VALID,0.479297,
2012-06-12, 00:30:04,VALID,1004.38,VALID,0,VALID,89.441,VALID,0,VALID,25.0839,VALID,350,VALID,0.540234,
2012-06-12, 00:31:04,VALID,1004.36,VALID,0,VALID,89.5859,VALID,0,VALID,25.045,VALID,340,VALID,0.610937,
2012-06-12, 00:32:04,VALID,1004.36,VALID,0,VALID,89.6851,VALID,0,VALID,25.006,VALID,337,VALID,0.699609,
2012-06-12, 00:33:04,VALID,1004.31,VALID,0,VALID,89.7996,VALID,0,VALID,25.0079,VALID,6,VALID,0.624609,
2012-06-12, 00:34:04,VALID,1004.34,VALID,0,VALID,89.8987,VALID,0,VALID,24.9476,VALID,354,VALID,0.538672,
2012-06-12, 00:35:04,VALID,1004.33,VALID,0,VALID,89.8606,VALID,0,VALID,24.9476,VALID,340,VALID,0.580469,
2012-06-12, 00:36:04,VALID,1004.31,VALID,0,VALID,89.7385,VALID,0,VALID,24.9885,VALID,340,VALID,0.423828,
2012-06-12, 00:37:04,VALID,1004.26,VALID,0,VALID,89.708,VALID,0,VALID,24.9866,VALID,9,VALID,0.778125,
2012-06-12, 00:38:04,VALID,1004.29,VALID,0,VALID,89.5097,VALID,0,VALID,25.0079,VALID,27,VALID,0.360156,
2012-06-12, 00:39:04,VALID,1004.25,VALID,0,VALID,89.5631,VALID,0,VALID,24.9866,VALID,27,VALID,0.332031,
2012-06-12, 00:40:04,VALID,1004.26,VALID,0,VALID,89.5936,VALID,0,VALID,24.9885,VALID,27,VALID,0.195703,
2012-06-12, 00:41:04,VALID,1004.23,VALID,0,VALID,89.7614,VALID,0,VALID,24.969,VALID,6,VALID,0.415234,
2012-06-12, 00:42:04,VALID,1004.2,VALID,0,VALID,89.8606,VALID,0,VALID,24.969,VALID,360,VALID,0.709766,
2012-06-12, 00:43:04,VALID,1004.18,VALID,0,VALID,89.769,VALID,0,VALID,25.0079,VALID,360,VALID,0.290234,
2012-06-12, 00:44:04,VALID,1004.15,VALID,0,VALID,89.769,VALID,0,VALID,25.0079,VALID,360,VALID,0.229687,
2012-06-12, 00:45:04,VALID,1004.15,VALID,0,VALID,89.708,VALID,0,VALID,25.006,VALID,341,VALID,0.441797,
2012-06-12, 00:46:04,VALID,1004.13,VALID,0,VALID,89.6775,VALID,0,VALID,24.9866,VALID,352,VALID,0.280469,
2012-06-12, 00:47:04,VALID,1004.08,VALID,0,VALID,89.7309,VALID,0,VALID,25.006,VALID,352,VALID,0.422266,
2012-06-12, 00:48:04,VALID,1004.06,VALID,0,VALID,89.7233,VALID,0,VALID,25.006,VALID,352,VALID,0.297656,
2012-06-12, 00:49:04,VALID,1004.06,VALID,0,VALID,89.6241,VALID,0,VALID,25.0255,VALID,352,VALID,0.313672,
2012-06-12, 00:50:04,VALID,1004.06,VALID,0,VALID,89.6088,VALID,0,VALID,25.006,VALID,352,VALID,0.319531,
2012-06-12, 00:51:04,VALID,1004.02,VALID,0,VALID,89.8758,VALID,0,VALID,24.9671,VALID,352,VALID,0.524609,
2012-06-12, 00:52:04,VALID,1004,VALID,0,VALID,89.8835,VALID,0,VALID,24.969,VALID,352,VALID,0.312891,
2012-06-12, 00:53:04,VALID,1004.02,VALID,0,VALID,89.9674,VALID,0,VALID,24.8892,VALID,352,VALID,0.301562,
2012-06-12, 00:54:04,VALID,1003.99,VALID,0,VALID,90.1963,VALID,0,VALID,24.8697,VALID,352,VALID,0,
2012-06-12, 00:55:04,VALID,1003.95,VALID,0,VALID,90.4022,VALID,0,VALID,24.8327,VALID,352,VALID,0.0289063,
2012-06-12, 00:56:04,VALID,1003.97,VALID,0,VALID,90.6082,VALID,0,VALID,24.8113,VALID,2,VALID,0.367188,
2012-06-12, 00:57:04,VALID,1003.92,VALID,0,VALID,90.6158,VALID,0,VALID,24.7937,VALID,2,VALID,0.421484,
2012-06-12, 00:58:04,VALID,1003.88,VALID,0,VALID,90.6998,VALID,0,VALID,24.7724,VALID,2,VALID,0.269531,
2012-06-12, 00:59:04,VALID,1003.87,VALID,0,VALID,90.7379,VALID,0,VALID,24.7724,VALID,2,VALID,0.348437,
2012-06-12, 01:00:04,VALID,1003.86,VALID,0,VALID,90.7684,VALID,0,VALID,24.7724,VALID,2,VALID,0.429297,
2012-06-12, 01:01:04,VALID,1003.87,VALID,0,VALID,90.7455,VALID,0,VALID,24.8113,VALID,2,VALID,0.493359,
2012-06-12, 01:02:04,VALID,1003.81,VALID,0,VALID,90.6845,VALID,0,VALID,24.8308,VALID,2,VALID,0.213281,
2012-06-12, 01:03:04,VALID,1003.82,VALID,0,VALID,90.509,VALID,0,VALID,24.8327,VALID,2,VALID,0.297656,
2012-06-12, 01:04:04,VALID,1003.83,VALID,0,VALID,90.5014,VALID,0,VALID,24.7919,VALID,2,VALID,0.602734,
2012-06-12, 01:05:04,VALID,1003.83,VALID,0,VALID,90.6006,VALID,0,VALID,24.7335,VALID,2,VALID,0.322266,
2012-06-12, 01:06:04,VALID,1003.85,VALID,0,VALID,90.9897,VALID,0.0815089,VALID,24.6945,VALID,2,VALID,0.395703,
2012-06-12, 01:07:04,VALID,1003.81,VALID,0,VALID,91.1956,VALID,0,VALID,24.675,VALID,2,VALID,0.537109,
2012-06-12, 01:08:04,VALID,1003.8,VALID,0,VALID,91.3101,VALID,0,VALID,24.675,VALID,2,VALID,0.473047,
2012-06-12, 01:09:04,VALID,1003.79,VALID,0,VALID,91.455,VALID,0,VALID,24.6556,VALID,39,VALID,0.307422,
2012-06-12, 01:10:04,VALID,1003.77,VALID,0,VALID,91.4932,VALID,0,VALID,24.6574,VALID,39,VALID,0.194922,
2012-06-12, 01:11:04,VALID,1003.76,VALID,0,VALID,91.4855,VALID,0,VALID,24.6574,VALID,39,VALID,0,
2012-06-12, 01:12:04,VALID,1003.69,VALID,0,VALID,91.4779,VALID,0,VALID,24.6574,VALID,39,VALID,0,
2012-06-12, 01:13:04,VALID,1003.71,VALID,0,VALID,91.4321,VALID,0,VALID,24.6574,VALID,33,VALID,0.286719,
2012-06-12, 01:14:04,VALID,1003.68,VALID,0,VALID,91.5237,VALID,0.0815089,VALID,24.6166,VALID,20,VALID,0.332031,
2012-06-12, 01:15:04,VALID,1003.67,VALID,0,VALID,91.5542,VALID,0,VALID,24.638,VALID,15,VALID,0.675,
2012-06-12, 01:16:04,VALID,1003.68,VALID,0,VALID,91.7525,VALID,0,VALID,24.638,VALID,11,VALID,0.482031,
2012-06-12, 01:17:04,VALID,1003.67,VALID,0,VALID,91.6534,VALID,0,VALID,24.6166,VALID,10,VALID,0.398828,
2012-06-12, 01:18:04,VALID,1003.65,VALID,0,VALID,91.5008,VALID,0,VALID,24.6361,VALID,10,VALID,0.298828,
2012-06-12, 01:19:04,VALID,1003.67,VALID,0,VALID,91.4474,VALID,0,VALID,24.6166,VALID,10,VALID,0.317187,
2012-06-12, 01:20:04,VALID,1003.68,VALID,0,VALID,91.6229,VALID,0,VALID,24.6166,VALID,10,VALID,0.467187,
2012-06-12, 01:21:04,VALID,1003.68,VALID,0,VALID,91.4321,VALID,0.0815089,VALID,24.6361,VALID,10,VALID,0.345703,
2012-06-12, 01:22:04,VALID,1003.67,VALID,0,VALID,91.3024,VALID,0.0815089,VALID,24.5972,VALID,10,VALID,0.353906,
2012-06-12, 01:23:04,VALID,1003.65,VALID,0,VALID,91.5084,VALID,0,VALID,24.5777,VALID,10,VALID,0.544922,
2012-06-12, 01:24:04,VALID,1003.64,VALID,0,VALID,92.0272,VALID,0,VALID,24.599,VALID,345,VALID,0.678516,
2012-06-12, 01:25:04,VALID,1003.59,VALID,0,VALID,91.8517,VALID,0,VALID,24.6185,VALID,345,VALID,0.473437,
2012-06-12, 01:26:04,VALID,1003.6,VALID,0,VALID,91.5237,VALID,0,VALID,24.5777,VALID,345,VALID,0.322266,
2012-06-12, 01:27:04,VALID,1003.59,VALID,0,VALID,91.455,VALID,0,VALID,24.5601,VALID,345,VALID,0.319531,
2012-06-12, 01:28:04,VALID,1003.56,VALID,0,VALID,91.6839,VALID,0,VALID,24.4998,VALID,345,VALID,0.45625,
2012-06-12, 01:29:04,VALID,1003.57,VALID,0,VALID,91.989,VALID,0,VALID,24.4804,VALID,346,VALID,0.278516,
2012-06-12, 01:30:04,VALID,1003.52,VALID,0,VALID,92.0272,VALID,0.0815089,VALID,24.5193,VALID,346,VALID,0.198828,
2012-06-12, 01:31:04,VALID,1003.51,VALID,0,VALID,92.1416,VALID,0,VALID,24.5193,VALID,346,VALID,0.221875,
2012-06-12, 01:32:04,VALID,1003.48,VALID,0,VALID,92.2408,VALID,0,VALID,24.5388,VALID,346,VALID,0.301562,
2012-06-12, 01:33:04,VALID,1003.43,VALID,0,VALID,92.1187,VALID,0.0815089,VALID,24.5972,VALID,346,VALID,0.159375,
2012-06-12, 01:34:04,VALID,1003.42,VALID,0,VALID,91.9051,VALID,0,VALID,24.5972,VALID,346,VALID,0.159766,
2012-06-12, 01:35:04,VALID,1003.39,VALID,0,VALID,91.8441,VALID,0.0815089,VALID,24.6361,VALID,346,VALID,0.204297,
2012-06-12, 01:36:04,VALID,1003.42,VALID,0,VALID,91.6991,VALID,0,VALID,24.6556,VALID,346,VALID,0,
2012-06-12, 01:37:04,VALID,1003.38,VALID,0,VALID,91.394,VALID,0.0815089,VALID,24.675,VALID,346,VALID,0,
2012-06-12, 01:38:04,VALID,1003.37,VALID,0,VALID,91.2796,VALID,0.0815089,VALID,24.6537,VALID,346,VALID,0,
2012-06-12, 01:39:04,VALID,1003.4,VALID,0,VALID,91.127,VALID,0.0815089,VALID,24.6556,VALID,346,VALID,0,
2012-06-12, 01:40:04,VALID,1003.38,VALID,0,VALID,91.2338,VALID,0.0815089,VALID,24.6361,VALID,346,VALID,0,
2012-06-12, 01:41:04,VALID,1003.39,VALID,0,VALID,91.1117,VALID,0.0815089,VALID,24.5972,VALID,346,VALID,0,
2012-06-12, 01:42:04,VALID,1003.38,VALID,0,VALID,91.1651,VALID,0.0815089,VALID,24.5388,VALID,346,VALID,0,
2012-06-12, 01:43:04,VALID,1003.4,VALID,0,VALID,91.4321,VALID,0.0815089,VALID,24.4998,VALID,346,VALID,0,
2012-06-12, 01:44:04,VALID,1003.4,VALID,0,VALID,91.5008,VALID,0.0815089,VALID,24.4609,VALID,346,VALID,0,
2012-06-12, 01:45:04,VALID,1003.39,VALID,0,VALID,91.5542,VALID,0.0815089,VALID,24.422,VALID,346,VALID,0,
2012-06-12, 01:46:04,VALID,1003.37,VALID,0,VALID,91.8975,VALID,0.0815089,VALID,24.383,VALID,346,VALID,0.0925781,
2012-06-12, 01:47:04,VALID,1003.37,VALID,0,VALID,92.2713,VALID,0,VALID,24.383,VALID,350,VALID,0.393359,
2012-06-12, 01:48:04,VALID,1003.37,VALID,0,VALID,92.2789,VALID,0.0815089,VALID,24.4006,VALID,10,VALID,0.425,
2012-06-12, 01:49:04,VALID,1003.33,VALID,0,VALID,92.1721,VALID,0.0815089,VALID,24.4025,VALID,10,VALID,0.461328,
2012-06-12, 01:50:04,VALID,1003.35,VALID,0,VALID,92.2866,VALID,0,VALID,24.383,VALID,10,VALID,0.428906,
2012-06-12, 01:51:04,VALID,1003.36,VALID,0,VALID,92.3171,VALID,0.0815089,VALID,24.3636,VALID,10,VALID,0.598047,
2012-06-12, 01:52:04,VALID,1003.37,VALID,0,VALID,92.4391,VALID,0.0815089,VALID,24.4006,VALID,3,VALID,0.672266,
2012-06-12, 01:53:04,VALID,1003.39,VALID,0,VALID,92.1492,VALID,0.0815089,VALID,24.422,VALID,3,VALID,0.179297,
2012-06-12, 01:54:04,VALID,1003.38,VALID,0,VALID,92.0806,VALID,0.0815089,VALID,24.422,VALID,3,VALID,0,
2012-06-12, 01:55:04,VALID,1003.38,VALID,0,VALID,91.9433,VALID,0.0815089,VALID,24.4006,VALID,3,VALID,0,
2012-06-12, 01:56:04,VALID,1003.41,VALID,0,VALID,92.1721,VALID,0,VALID,24.3617,VALID,356,VALID,0.654688,
2012-06-12, 01:57:04,VALID,1003.36,VALID,0,VALID,92.3705,VALID,0,VALID,24.4414,VALID,351,VALID,0.634766,
2012-06-12, 01:58:04,VALID,1003.39,VALID,0,VALID,92.2942,VALID,0.0815089,VALID,24.4998,VALID,23,VALID,0.954297,
2012-06-12, 01:59:04,VALID,1003.39,VALID,0,VALID,92.0653,VALID,0.0815089,VALID,24.5953,VALID,13,VALID,0.453906,
2012-06-12, 02:00:04,VALID,1003.37,VALID,0,VALID,91.4474,VALID,0,VALID,24.6556,VALID,13,VALID,0.258203,
2012-06-12, 02:01:04,VALID,1003.35,VALID,0,VALID,91.1193,VALID,0.0815089,VALID,24.6556,VALID,13,VALID,0.200781,
2012-06-12, 02:02:04,VALID,1003.35,VALID,0,VALID,91.1499,VALID,0,VALID,24.6769,VALID,13,VALID,0.324219,
2012-06-12, 02:03:04,VALID,1003.33,VALID,0,VALID,91.0965,VALID,0,VALID,24.6342,VALID,13,VALID,0.309375,
2012-06-12, 02:04:04,VALID,1003.29,VALID,0,VALID,91.2033,VALID,0,VALID,24.6342,VALID,13,VALID,0.0796875,
2012-06-12, 02:05:04,VALID,1003.28,VALID,0,VALID,91.2338,VALID,0,VALID,24.675,VALID,13,VALID,0,
2012-06-12, 02:06:04,VALID,1003.28,VALID,0,VALID,91.0049,VALID,0,VALID,24.675,VALID,13,VALID,0,
2012-06-12, 02:07:04,VALID,1003.24,VALID,0,VALID,91.0431,VALID,0,VALID,24.675,VALID,13,VALID,0,
2012-06-12, 02:08:04,VALID,1003.25,VALID,0,VALID,91.0431,VALID,0,VALID,24.675,VALID,13,VALID,0,
2012-06-12, 02:09:04,VALID,1003.23,VALID,0,VALID,91.0736,VALID,0.0815089,VALID,24.6556,VALID,13,VALID,0,
2012-06-12, 02:10:04,VALID,1003.23,VALID,0,VALID,91.0659,VALID,0,VALID,24.6556,VALID,13,VALID,0,
2012-06-12, 02:11:04,VALID,1003.23,VALID,0,VALID,91.0354,VALID,0,VALID,24.6556,VALID,13,VALID,0,
2012-06-12, 02:12:04,VALID,1003.22,VALID,0,VALID,91.1804,VALID,0,VALID,24.6342,VALID,13,VALID,0,
2012-06-12, 02:13:04,VALID,1003.21,VALID,0,VALID,91.0888,VALID,0.0815089,VALID,24.6342,VALID,13,VALID,0,
2012-06-12, 02:14:04,VALID,1003.18,VALID,0,VALID,91.188,VALID,0.0815089,VALID,24.675,VALID,13,VALID,0,
2012-06-12, 02:15:04,VALID,1003.15,VALID,0,VALID,91.1346,VALID,0.0815089,VALID,24.7159,VALID,15,VALID,0.476953,
2012-06-12, 02:16:04,VALID,1003.14,VALID,0,VALID,90.7684,VALID,0.0815089,VALID,24.7724,VALID,14,VALID,0.264453,
2012-06-12, 02:17:04,VALID,1003.14,VALID,0,VALID,90.4938,VALID,0,VALID,24.8132,VALID,14,VALID,0,
2012-06-12, 02:18:04,VALID,1003.13,VALID,0,VALID,90.4022,VALID,0,VALID,24.7919,VALID,14,VALID,0,
2012-06-12, 02:19:04,VALID,1003.14,VALID,0,VALID,90.4785,VALID,0,VALID,24.7919,VALID,355,VALID,0,
2012-06-12, 02:20:04,VALID,1003.11,VALID,0,VALID,90.2649,VALID,0,VALID,24.8308,VALID,355,VALID,0,
2012-06-12, 02:21:04,VALID,1003.11,VALID,0,VALID,90.2725,VALID,0,VALID,24.8503,VALID,355,VALID,0,
2012-06-12, 02:22:04,VALID,1003.09,VALID,0,VALID,90.0284,VALID,0,VALID,24.8892,VALID,355,VALID,0,
2012-06-12, 02:23:04,VALID,1003.09,VALID,0,VALID,90.0971,VALID,0,VALID,24.9087,VALID,355,VALID,0,
2012-06-12, 02:24:04,VALID,1003.07,VALID,0,VALID,90.0055,VALID,0.0815089,VALID,24.9263,VALID,355,VALID,0,
2012-06-12, 02:25:04,VALID,1003.08,VALID,0,VALID,89.7843,VALID,0.0815089,VALID,24.9457,VALID,355,VALID,0,
2012-06-12, 02:26:04,VALID,1003.12,VALID,0,VALID,89.6927,VALID,0.0815089,VALID,24.9671,VALID,351,VALID,0.0300781,
2012-06-12, 02:27:04,VALID,1003.12,VALID,0,VALID,89.6622,VALID,0,VALID,24.9866,VALID,349,VALID,0.529688,
2012-06-12, 02:28:04,VALID,1003.14,VALID,0,VALID,89.3952,VALID,0,VALID,25.0255,VALID,349,VALID,0.917188,
2012-06-12, 02:29:04,VALID,1003.18,VALID,0,VALID,89.0748,VALID,0,VALID,25.0839,VALID,354,VALID,0,
2012-06-12, 02:30:04,VALID,1003.16,VALID,0,VALID,88.9222,VALID,0,VALID,25.1053,VALID,23,VALID,0.554297,
2012-06-12, 02:31:04,VALID,1003.17,VALID,0,VALID,88.7849,VALID,0,VALID,25.1034,VALID,23,VALID,0.0488281,
2012-06-12, 02:32:04,VALID,1003.19,VALID,0,VALID,88.8154,VALID,0,VALID,25.1034,VALID,23,VALID,0.096875,
2012-06-12, 02:33:04,VALID,1003.24,VALID,0,VALID,88.762,VALID,0.0815089,VALID,25.1229,VALID,23,VALID,0.0804688,
2012-06-12, 02:34:04,VALID,1003.27,VALID,0,VALID,88.6934,VALID,0,VALID,25.1034,VALID,23,VALID,0,
2012-06-12, 02:35:04,VALID,1003.29,VALID,0,VALID,88.6247,VALID,0.0815089,VALID,25.0839,VALID,21,VALID,0,
2012-06-12, 02:36:04,VALID,1003.35,VALID,0,VALID,88.6781,VALID,0,VALID,25.0431,VALID,21,VALID,0,
2012-06-12, 02:37:04,VALID,1003.33,VALID,0,VALID,88.8765,VALID,0.0815089,VALID,25.0431,VALID,21,VALID,0,
2012-06-12, 02:38:04,VALID,1003.36,VALID,0,VALID,89.0672,VALID,0.0815089,VALID,25.0236,VALID,21,VALID,0,
2012-06-12, 02:39:04,VALID,1003.43,VALID,0,VALID,88.9604,VALID,0,VALID,25.0663,VALID,19,VALID,0,
2012-06-12, 02:40:04,VALID,1003.42,VALID,0,VALID,88.9756,VALID,0,VALID,25.0255,VALID,19,VALID,0,
2012-06-12, 02:41:04,VALID,1003.47,VALID,0,VALID,89.0977,VALID,0,VALID,25.006,VALID,19,VALID,0,
2012-06-12, 02:42:04,VALID,1003.48,VALID,0,VALID,89.4257,VALID,0,VALID,24.9866,VALID,18,VALID,0,
2012-06-12, 02:43:04,VALID,1003.5,VALID,0,VALID,89.3494,VALID,0,VALID,24.9847,VALID,340,VALID,0.303125,
2012-06-12, 02:44:04,VALID,1003.52,VALID,0,VALID,89.1664,VALID,0.0815089,VALID,25.0255,VALID,340,VALID,0.221875,
2012-06-12, 02:45:04,VALID,1003.55,VALID,0,VALID,89.2121,VALID,0.0815089,VALID,25.0255,VALID,342,VALID,0.0285156,
2012-06-12, 02:46:04,VALID,1003.56,VALID,0,VALID,89.0977,VALID,0.0815089,VALID,25.0431,VALID,343,VALID,0.00234375,
2012-06-12, 02:47:04,VALID,1003.59,VALID,0,VALID,89.0138,VALID,0,VALID,25.0839,VALID,346,VALID,0,
2012-06-12, 02:48:04,VALID,1003.59,VALID,0,VALID,88.9604,VALID,0.0815089,VALID,25.082,VALID,346,VALID,0.480469,
2012-06-12, 02:49:04,VALID,1003.59,VALID,0,VALID,88.7468,VALID,0,VALID,25.121,VALID,347,VALID,0.301953,
2012-06-12, 02:50:04,VALID,1003.61,VALID,0,VALID,88.5103,VALID,0,VALID,25.1618,VALID,347,VALID,0.663672,
2012-06-12, 02:51:04,VALID,1003.63,VALID,0,VALID,88.3043,VALID,0.0815089,VALID,25.2007,VALID,348,VALID,0.442187,
2012-06-12, 02:52:04,VALID,1003.68,VALID,0,VALID,88.0144,VALID,0,VALID,25.2592,VALID,18,VALID,0.0632813,
2012-06-12, 02:53:04,VALID,1003.66,VALID,0,VALID,87.9,VALID,0,VALID,25.2786,VALID,10,VALID,0.416406,
2012-06-12, 02:54:04,VALID,1003.7,VALID,0,VALID,87.9381,VALID,0,VALID,25.3195,VALID,10,VALID,0.216016,
2012-06-12, 02:55:04,VALID,1003.71,VALID,0,VALID,87.6863,VALID,0,VALID,25.337,VALID,42,VALID,0.592188,
2012-06-12, 02:56:04,VALID,1003.69,VALID,0,VALID,87.5338,VALID,0.0815089,VALID,25.3955,VALID,342,VALID,0.484375,
2012-06-12, 02:57:04,VALID,1003.68,VALID,0,VALID,87.549,VALID,0,VALID,25.4149,VALID,342,VALID,0.265234,
2012-06-12, 02:58:04,VALID,1003.71,VALID,0,VALID,87.4727,VALID,0,VALID,25.4149,VALID,12,VALID,0.0976563,
2012-06-12, 02:59:04,VALID,1003.72,VALID,0,VALID,87.4422,VALID,0.0815089,VALID,25.4149,VALID,2,VALID,0.813672,
2012-06-12, 03:00:04,VALID,1003.74,VALID,0,VALID,87.3354,VALID,0,VALID,25.4325,VALID,354,VALID,0.555469,
2012-06-12, 03:01:04,VALID,1003.76,VALID,0,VALID,87.1523,VALID,0,VALID,25.4928,VALID,353,VALID,0.785156,
2012-06-12, 03:02:04,VALID,1003.75,VALID,0,VALID,86.8243,VALID,0,VALID,25.5318,VALID,352,VALID,1.56445,
2012-06-12, 03:03:04,VALID,1003.78,VALID,0,VALID,86.6031,VALID,0,VALID,25.5902,VALID,355,VALID,0.932422,
2012-06-12, 03:04:04,VALID,1003.75,VALID,0,VALID,86.7633,VALID,0,VALID,25.6292,VALID,355,VALID,0.382031,
2012-06-12, 03:05:04,VALID,1003.76,VALID,0,VALID,86.9235,VALID,0,VALID,25.6097,VALID,355,VALID,0.591406,
2012-06-12, 03:06:04,VALID,1003.79,VALID,0,VALID,87.0532,VALID,0.0815089,VALID,25.5707,VALID,355,VALID,0.542969,
2012-06-12, 03:07:04,VALID,1003.76,VALID,0,VALID,87.0532,VALID,0,VALID,25.5298,VALID,340,VALID,0.905469,
2012-06-12, 03:08:04,VALID,1003.78,VALID,0,VALID,87.0074,VALID,0,VALID,25.5513,VALID,349,VALID,0.897656,
2012-06-12, 03:09:04,VALID,1003.79,VALID,0,VALID,87.1294,VALID,0,VALID,25.5513,VALID,334,VALID,0.551172,
2012-06-12, 03:10:04,VALID,1003.77,VALID,0,VALID,87.1218,VALID,0,VALID,25.5532,VALID,350,VALID,0.978906,
2012-06-12, 03:11:04,VALID,1003.77,VALID,0,VALID,87.0684,VALID,0,VALID,25.5337,VALID,346,VALID,0.851172,
2012-06-12, 03:12:04,VALID,1003.76,VALID,0,VALID,87.0989,VALID,0,VALID,25.5123,VALID,350,VALID,0.873438,
2012-06-12, 03:13:04,VALID,1003.78,VALID,0,VALID,86.9769,VALID,0,VALID,25.5532,VALID,341,VALID,1.04219,
2012-06-12, 03:14:04,VALID,1003.78,VALID,0,VALID,86.9464,VALID,0,VALID,25.5318,VALID,334,VALID,0.677734,
2012-06-12, 03:15:04,VALID,1003.79,VALID,0,VALID,86.8624,VALID,0,VALID,25.5532,VALID,340,VALID,0.510547,
2012-06-12, 03:16:04,VALID,1003.83,VALID,0,VALID,86.8548,VALID,0,VALID,25.5104,VALID,340,VALID,0.519922,
2012-06-12, 03:17:04,VALID,1003.79,VALID,0,VALID,86.9006,VALID,0.0815089,VALID,25.5123,VALID,351,VALID,0.697266,
2012-06-12, 03:18:04,VALID,1003.81,VALID,0,VALID,86.9998,VALID,0,VALID,25.4928,VALID,350,VALID,0.711328,
2012-06-12, 03:19:04,VALID,1003.83,VALID,0,VALID,87.16,VALID,0,VALID,25.4948,VALID,350,VALID,0.433984,
2012-06-12, 03:20:04,VALID,1003.82,VALID,0,VALID,87.343,VALID,0,VALID,25.4539,VALID,351,VALID,0.428125,
2012-06-12, 03:21:04,VALID,1003.81,VALID,0,VALID,87.5872,VALID,0,VALID,25.3955,VALID,350,VALID,0.464063,
2012-06-12, 03:22:04,VALID,1003.79,VALID,0,VALID,87.8313,VALID,0,VALID,25.376,VALID,352,VALID,0.669922,
2012-06-12, 03:23:04,VALID,1003.77,VALID,0,VALID,87.9076,VALID,0.0815089,VALID,25.376,VALID,333,VALID,0.743359,
2012-06-12, 03:24:04,VALID,1003.77,VALID,0,VALID,87.8618,VALID,0,VALID,25.3974,VALID,345,VALID,0.524609,
2012-06-12, 03:25:04,VALID,1003.73,VALID,0,VALID,87.9839,VALID,0,VALID,25.376,VALID,345,VALID,0.705078,
2012-06-12, 03:26:04,VALID,1003.7,VALID,0,VALID,88.0907,VALID,0,VALID,25.3584,VALID,347,VALID,0.484766,
2012-06-12, 03:27:04,VALID,1003.66,VALID,0,VALID,88.3577,VALID,0,VALID,25.2981,VALID,359,VALID,0.603906,
2012-06-12, 03:28:04,VALID,1003.65,VALID,0,VALID,88.4721,VALID,0,VALID,25.3195,VALID,23,VALID,0.790625,
2012-06-12, 03:29:04,VALID,1003.63,VALID,0,VALID,88.4721,VALID,0,VALID,25.2786,VALID,16,VALID,0.435156,
2012-06-12, 03:30:04,VALID,1003.57,VALID,0,VALID,88.5103,VALID,0,VALID,25.3,VALID,12,VALID,0.0484375,
2012-06-12, 03:31:04,VALID,1003.58,VALID,0,VALID,88.4798,VALID,0,VALID,25.2611,VALID,12,VALID,0.151562,
2012-06-12, 03:32:04,VALID,1003.52,VALID,0,VALID,88.8459,VALID,0,VALID,25.2397,VALID,12,VALID,0.703516,
2012-06-12, 03:33:04,VALID,1003.51,VALID,0,VALID,88.7849,VALID,0,VALID,25.2397,VALID,12,VALID,0.244531,
2012-06-12, 03:34:04,VALID,1003.5,VALID,0,VALID,88.762,VALID,0,VALID,25.2806,VALID,26,VALID,0.622266,
2012-06-12, 03:35:04,VALID,1003.46,VALID,0,VALID,88.7162,VALID,0,VALID,25.2611,VALID,26,VALID,0.241016,
2012-06-12, 03:36:04,VALID,1003.48,VALID,0,VALID,88.7849,VALID,0,VALID,25.2611,VALID,14,VALID,0.358984,
2012-06-12, 03:37:04,VALID,1003.48,VALID,0,VALID,88.7925,VALID,0,VALID,25.2202,VALID,14,VALID,0.150391,
2012-06-12, 03:38:04,VALID,1003.46,VALID,0,VALID,88.9222,VALID,0,VALID,25.2221,VALID,19,VALID,0.56875,
2012-06-12, 03:39:04,VALID,1003.43,VALID,0,VALID,89.1587,VALID,0,VALID,25.1832,VALID,6,VALID,0.682031,
2012-06-12, 03:40:04,VALID,1003.44,VALID,0,VALID,89.174,VALID,0,VALID,25.1637,VALID,1,VALID,0.176563,
2012-06-12, 03:41:04,VALID,1003.4,VALID,0,VALID,89.2884,VALID,0,VALID,25.1832,VALID,358,VALID,0.493359,
2012-06-12, 03:42:04,VALID,1003.42,VALID,0,VALID,89.0977,VALID,0,VALID,25.1832,VALID,358,VALID,0.169922,
2012-06-12, 03:43:04,VALID,1003.42,VALID,0,VALID,89.2808,VALID,0.0815089,VALID,25.1423,VALID,358,VALID,0.592188,
2012-06-12, 03:44:04,VALID,1003.39,VALID,0,VALID,89.4944,VALID,0,VALID,25.1637,VALID,349,VALID,0.667578,